x

9759110 - Magueyes Islands, Pr (mgip4) Weather Station

11:12 - Wed 20th Feb 2019 All times are AST. -4 hours from GMT.

  • Wind
  • Sea Temp 78°f
  • Aire Temp 77°f
  • Sea Pressure 1019.4mb
  • 9759110 - Magueyes Islands, Pr
  • 9759110 - Magueyes Islands, Pr

More Historic Weather Station data

Upgrade to MSW Pro to gain access to the past 30 days of data for over 8000 Wavebouys and Weather Stations around the globe.

Join

Comparision Forecast

View Surf forecast
   
mié 02/20 11:12  -  7 mph 1019.4mb 78f 77f
11:06 3 6 mph 1019.5mb 78f 76f
11:00 2 6 mph 1019.4mb 78f 77f
10:54 3 7 mph 1019.4mb 78f 77f
10:48 3 9 mph 1019.3mb 78f 77f
10:42 5 9 mph 1019.3mb 78f 77f
10:36 6 10 mph 1019.3mb 79f 77f
10:30 3 10 mph 1019.3mb 79f 77f
10:24 6 10 mph 1019.2mb 79f 78f
10:18 5 10 mph 1019.1mb 79f 78f
10:12 6 10 mph 1019.1mb 79f 78f
10:06 6 9 mph 1019.1mb 79f 78f
10:00 6 13 mph 1019mb 79f 78f
9:54 6 13 mph 1018.9mb 79f 78f
9:48 7 14 mph 1018.9mb 79f -
9:42 6 11 mph 1018.8mb 79f 78f
9:36 5 11 mph 1018.8mb 79f 79f
9:30 7 11 mph 1018.7mb 79f 79f
9:24 6 10 mph 1018.7mb 79f 78f
9:18 7 9 mph 1018.6mb 79f 78f
9:12 3 7 mph 1018.6mb 79f 78f
9:06 5 8 mph 1018.6mb 79f 78f
9:00 2 8 mph 1018.6mb 79f 78f
8:54 2 6 mph 1018.5mb 79f 78f
8:48 3 8 mph 1018.5mb 79f 78f
8:42 3 7 mph 1018.4mb 79f 78f
8:36 3 8 mph 1018.4mb 79f 78f
8:30 3 7 mph 1018.4mb 79f 78f
8:24 5 8 mph 1018.3mb 79f 78f
8:18 3 8 mph 1018.2mb 79f 78f
8:12 5 9 mph 1018.2mb 79f 78f
8:06 2 9 mph 1018mb 79f 79f
8:00 2 6 mph 1017.9mb 79f 79f
7:54 3 9 mph 1017.9mb 79f 79f
7:48 5 9 mph 1017.8mb 79f 79f
7:42 5 9 mph 1017.7mb 79f 79f
7:36 3 8 mph 1017.7mb 79f 79f
7:30 6 9 mph 1017.6mb 79f 79f
7:24 5 9 mph 1017.6mb 79f 79f
7:18 5 8 mph 1017.6mb 79f 79f
7:12 6 9 mph 1017.6mb 79f 79f
7:06 6 10 mph 1017.5mb 79f 79f
7:00 6 10 mph 1017.4mb 79f 79f
6:54 3 10 mph 1017.4mb 79f 79f
6:48 5 11 mph 1017.4mb 79f 79f
6:42 6 11 mph 1017.4mb 79f 79f
6:36 6 11 mph 1017.3mb 79f 79f
6:30 5 10 mph 1017.4mb 79f 79f
6:24 6 11 mph 1017.4mb 79f 79f
6:18 5 14 mph 1017.4mb 79f 80f
6:12 6 13 mph 1017.4mb 79f 80f
6:06 3 8 mph 1017.4mb 79f 80f
6:00 6 10 mph 1017.4mb 79f 80f
5:54 6 9 mph 1017.4mb 79f 80f
5:48 6 11 mph 1017.4mb 79f 80f
5:42 6 11 mph 1017.4mb 79f 80f
5:36 6 11 mph 1017.4mb 79f 80f
5:30 5 13 mph 1017.4mb 79f 79f
5:24 6 10 mph 1017.5mb 79f 79f
5:18 5 8 mph 1017.4mb 79f 79f
5:12 6 10 mph 1017.3mb 79f 79f
5:06 6 13 mph 1017.3mb 79f 80f
5:00 6 10 mph 1017.3mb 79f 80f
4:54 7 15 mph 1017.2mb 79f 80f
4:48 5 8 mph 1017.1mb 79f 80f
4:42 6 10 mph 1017.1mb 79f 80f
4:36 6 10 mph 1017.1mb 79f 81f
4:30 5 11 mph 1017.1mb 79f -
4:24 6 14 mph 1017.1mb 79f 81f
4:18 7 14 mph 1017.1mb 79f 81f
4:12 8 14 mph 1017.1mb 79f 81f
4:06 6 11 mph 1017.1mb 79f 82f
4:00 7 14 mph 1017.1mb 79f -
3:54 9 15 mph 1017.1mb 79f 82f
3:48 9 14 mph 1017.1mb 79f 82f
3:42 9 15 mph 1017.1mb 79f 82f
3:36 9 15 mph 1017.1mb 79f 82f
3:30 9 15 mph 1017.1mb 79f 82f
3:24 9 17 mph 1017.2mb 79f 82f
3:18 9 16 mph 1017.2mb 79f 82f
3:12 9 14 mph 1017.2mb 79f 82f
3:06 8 15 mph 1017.2mb 79f 82f
3:00 8 14 mph 1017.3mb 79f 82f
2:54 8 16 mph 1017.4mb 79f 82f
2:48 10 16 mph 1017.4mb 79f 83f
2:42 11 16 mph 1017.4mb 79f 83f
2:36 9 13 mph 1017.5mb 79f 83f
2:30 9 15 mph 1017.5mb 79f 82f
2:18 8 17 mph 1017.6mb 79f -
2:12 9 16 mph 1017.7mb 79f 82f
2:06 11 17 mph 1017.8mb 79f 82f
2:00 11 17 mph 1017.8mb 79f 82f
1:54 10 16 mph 1018mb 79f 82f
1:48 9 16 mph 1018mb 79f 82f
1:42 10 17 mph 1018.1mb 79f 81f
1:36 11 17 mph 1018.2mb 79f 81f
1:30 10 16 mph 1018.3mb 79f 81f
1:24 13 16 mph 1018.3mb 79f 81f
1:18 11 16 mph 1018.4mb 78f 81f
1:12 10 15 mph 1018.5mb 78f 81f
1:06 9 15 mph 1018.6mb 78f 81f
1:00 9 15 mph 1018.7mb 78f 81f
12:54 10 15 mph 1018.7mb 78f 81f
12:48 10 17 mph 1018.8mb 78f 81f
12:42 8 15 mph 1018.9mb 78f 81f
12:36 11 18 mph 1019mb 78f 80f
12:30 13 17 mph 1019.1mb 78f 80f
12:24 11 16 mph 1019.1mb 78f 80f
12:18 10 16 mph 1019.2mb 78f 79f
12:12 10 15 mph 1019.4mb 78f 79f
12:06 11 14 mph 1019.5mb 78f 78f
12:00 10 14 mph 1019.5mb 78f 78f
11:54 9 13 mph 1019.6mb 78f 78f
11:48 10 15 mph 1019.6mb 78f 79f
11:42 8 13 mph 1019.7mb 78f 79f
11:36 8 13 mph 1019.7mb 78f 77f
11:30 8 15 mph 1019.9mb 78f 77f
11:24 8 16 mph 1020mb 78f 77f
11:18 9 13 mph 1020mb 78f 77f
11:12 7 18 mph 1020.2mb 78f 76f
11:06 7 23 mph 1020.3mb 78f 77f
11:00 14 24 mph 1020.3mb 78f 78f
10:54 8 15 mph 1020mb 78f 81f
10:48 8 15 mph 1019.9mb 78f 81f
10:42 9 15 mph 1019.8mb 78f 81f
10:36 8 13 mph 1019.8mb 78f 81f
10:30 6 11 mph 1019.8mb 78f 82f
10:24 3 13 mph 1019.7mb 78f 82f
10:18 6 13 mph 1019.7mb 78f 82f
10:12 5 8 mph 1019.8mb 78f 82f
10:06 6 13 mph 1019.7mb 78f 82f
10:00 2 11 mph 1019.7mb 78f 83f
9:54 5 14 mph 1019.7mb 78f 82f
9:48 6 13 mph 1019.7mb 78f 83f
9:42 8 11 mph 1019.6mb 78f 82f
9:36 7 10 mph 1019.6mb 78f 82f
9:30 9 14 mph 1019.5mb 78f 82f
9:24 8 13 mph 1019.5mb 78f 82f
9:18 6 10 mph 1019.5mb 78f 81f
9:12 6 10 mph 1019.4mb 78f 81f
9:06 6 10 mph 1019.3mb 78f 81f
9:00 6 10 mph 1019.3mb 78f 81f
8:54 6 11 mph 1019.2mb 78f 81f
8:48 5 8 mph 1019.2mb - -
8:42 5 8 mph 1019.1mb 78f 80f
8:36 6 8 mph 1019.1mb 78f 79f
8:30 3 6 mph 1019mb 78f 79f
8:24 2 5 mph 1018.9mb 78f 78f
8:18 2 5 mph 1018.9mb 78f 77f
8:12  -  3 mph 1018.9mb 78f 77f
8:06  -  0 mph 1018.8mb 78f 76f
8:00  -  0 mph 1018.8mb 78f 76f
7:54  -  1 mph 1018.7mb 78f 75f
7:48  -  2 mph 1018.6mb - -
7:42  -  3 mph 1018.6mb 78f 74f
7:36 1 6 mph 1018.5mb 78f 73f
7:30 3 6 mph 1018.4mb 78f 73f
7:24 3 6 mph 1018.4mb 78f 73f
7:18 5 6 mph 1018.3mb 78f 73f
7:12  -  3 mph 1018.3mb 78f 73f
7:06 1 3 mph 1018.3mb 78f 73f
7:00 2 3 mph 1018.2mb 78f 73f
6:54 2 3 mph 1018.1mb 78f 73f
6:48  -  3 mph 1018.1mb - -
6:42  -  3 mph 1018.1mb 78f 73f
6:36 3 6 mph 1018mb 78f 72f
6:30 3 5 mph 1017.9mb 78f 72f
6:24 5 6 mph 1017.9mb 78f 72f
6:18 5 7 mph 1017.9mb 78f 72f
6:12 5 7 mph 1017.8mb 78f 73f
6:06 5 7 mph 1017.7mb 78f 72f
6:00 3 6 mph 1017.7mb 78f 72f
5:54 3 5 mph 1017.6mb 78f 73f
5:48  -  2 mph 1017.6mb 78f 73f
5:42 1 2 mph 1017.6mb 78f 74f
5:36 1 2 mph 1017.7mb 78f 74f
5:30 1 2 mph 1017.7mb 78f 74f
5:24 1 2 mph 1017.7mb 78f 75f
5:18 2 2 mph 1017.7mb 78f 75f
5:12  -  2 mph 1017.7mb 78f 75f
5:06 2 5 mph 1017.7mb 78f 75f
5:00 1 3 mph 1017.7mb 78f 74f
4:54 2 2 mph 1017.7mb 78f 74f
4:48 1 2 mph 1017.7mb 78f 73f
4:42  -  3 mph 1017.6mb 78f 73f
4:36 2 5 mph 1017.5mb 78f 72f
4:30 3 5 mph 1017.5mb 78f 72f
4:24 2 5 mph 1017.5mb 78f 72f
4:18 2 3 mph - - -
4:12 2 5 mph 1017.4mb 78f 72f
4:06 3 5 mph 1017.4mb 78f 72f
4:00 3 6 mph 1017.4mb 78f 72f
3:54 5 6 mph 1017.4mb 78f 72f
3:48 5 7 mph 1017.5mb 78f 71f
3:42 2 6 mph 1017.5mb 78f 71f
3:36 3 6 mph 1017.5mb 78f 71f
3:30 5 6 mph 1017.6mb 78f 71f
3:24 3 6 mph 1017.7mb 78f 71f
3:18 2 2 mph 1017.8mb 78f 71f
3:12 2 3 mph 1017.8mb 78f 72f
3:06 2 2 mph 1017.9mb 78f 72f
3:00  -  2 mph 1018mb 78f 73f
2:54  -  2 mph 1018mb 78f 73f
2:48 2 3 mph 1018.1mb 78f 73f
2:42  -  1 mph 1018.2mb 78f 74f
2:36  -  3 mph 1018.3mb 78f 74f
2:30  -  3 mph 1018.4mb 78f 74f
2:24 1 3 mph 1018.5mb 78f 74f
2:18 1 5 mph 1018.5mb - -
2:12 1 3 mph 1018.5mb 78f 74f
2:06  -  1 mph 1018.6mb 78f 73f
2:00  -  2 mph 1018.6mb 78f 74f
1:54  -  3 mph 1018.7mb 78f 74f
1:48  -  3 mph 1018.8mb 78f 74f
1:42 1 3 mph 1018.9mb 78f 74f
1:36 2 6 mph 1018.9mb 78f 74f
1:30 2 6 mph 1019mb 78f 73f
1:24 2 6 mph 1019.1mb 78f 73f
1:18 5 6 mph 1019.1mb 78f 73f
1:12 3 5 mph 1019.2mb 78f 73f
1:06 2 5 mph 1019.2mb 78f 73f
1:00 2 5 mph 1019.2mb - -
12:54 2 5 mph 1019.3mb 78f 74f
12:48 2 6 mph 1019.3mb 78f 74f
12:42 3 5 mph 1019.4mb 78f 74f
12:36 3 5 mph 1019.4mb 78f 74f
12:30 2 6 mph 1019.5mb 78f 74f
12:24 3 6 mph 1019.5mb 78f 75f
12:18 2 5 mph 1019.5mb 78f 75f
12:12 2 6 mph 1019.6mb 78f 75f
12:06 1 3 mph 1019.6mb 78f 75f
12:00 2 6 mph 1019.6mb 78f 76f
mar 02/19 11:54 2 7 mph 1019.6mb 78f 76f
11:48 1 3 mph 1019.6mb 78f 75f
11:42 2 3 mph 1019.7mb 78f 75f
11:36 1 3 mph 1019.7mb 78f 74f
11:30 2 3 mph 1019.8mb 78f 74f
11:24  -  1 mph 1019.8mb 78f 74f
11:18  -  1 mph 1019.7mb 78f 74f
11:12  -  2 mph 1019.7mb 78f 75f
11:06  -  1 mph 1019.7mb 78f 75f
11:00  -  3 mph 1019.8mb 78f 75f
10:54 1 2 mph 1019.8mb 78f 75f
10:48 1 3 mph 1019.8mb 78f 75f
10:42 1 3 mph 1019.8mb 78f 76f
10:36 1 6 mph 1019.7mb 78f 76f
10:30 1 7 mph 1019.7mb 78f 76f
10:24 2 7 mph 1019.7mb 79f 76f
10:18 3 8 mph 1019.7mb 79f 77f
10:12 5 7 mph 1019.7mb 79f 77f
10:06 2 6 mph 1019.6mb 79f 77f
10:00 3 6 mph 1019.5mb 79f 77f
9:54 3 7 mph 1019.5mb 79f 77f
9:48 3 10 mph 1019.4mb 79f 78f
9:42 3 8 mph 1019.4mb 79f 78f
9:36 5 9 mph 1019.4mb 79f 78f
9:30 6 10 mph 1019.4mb 79f 78f
9:24 6 15 mph 1019.3mb 79f 78f
9:18 7 13 mph 1019.3mb 79f 78f
9:12 8 13 mph 1019.2mb 79f 79f
9:06 8 13 mph 1019.1mb 79f 79f
9:00 6 11 mph 1019.1mb 79f 79f
8:54 7 13 mph 1019mb 79f 79f
8:48 7 10 mph 1018.9mb 79f 79f
8:42 5 10 mph 1018.9mb 79f 79f
8:36 5 11 mph 1018.8mb 79f 79f
8:30 7 11 mph 1018.7mb 79f 79f
8:24 6 11 mph 1018.6mb 79f 79f
8:18 6 13 mph 1018.6mb 79f 79f
8:12 6 14 mph 1018.4mb 79f 79f
8:06 7 14 mph 1018.3mb 79f 80f
8:00 6 11 mph 1018.2mb 79f 79f
7:54 6 13 mph 1018.1mb 79f 80f
7:48 6 10 mph 1018.1mb 79f 80f
7:42 7 11 mph 1018mb 79f 80f
7:36 6 13 mph 1017.9mb 79f 80f
7:30 7 10 mph 1017.8mb 79f 80f
7:24 5 11 mph 1017.7mb 79f 80f
7:18 7 14 mph 1017.7mb 79f 80f
7:12 7 13 mph 1017.6mb 79f 80f
7:06 7 14 mph 1017.5mb 79f 80f
7:00 7 16 mph 1017.5mb 79f 80f
6:54 7 15 mph 1017.5mb 79f 80f
6:48 8 14 mph 1017.5mb 79f 80f
6:42 6 17 mph 1017.5mb 79f 80f
6:36 6 16 mph 1017.5mb 79f 80f
6:30 8 14 mph 1017.4mb 79f 80f
6:24 7 14 mph 1017.4mb 79f 80f
6:18 6 15 mph 1017.4mb 79f 80f
6:12 8 14 mph 1017.4mb 79f 80f
6:06 8 13 mph 1017.4mb 79f 80f
6:00 6 16 mph - - -
5:54 9 16 mph 1017.2mb 79f 80f
5:48 9 18 mph 1017.2mb 79f 80f
5:42 7 15 mph 1017.3mb 79f 81f
5:36 8 13 mph 1017.2mb 79f 81f
5:30 7 15 mph 1017.2mb 79f 82f
5:24 5 15 mph 1017.2mb 79f 82f
5:18 10 17 mph 1017.2mb 79f 82f
5:12 7 13 mph 1017.2mb 79f 82f
5:06 6 10 mph 1017.3mb 79f 82f
5:00 7 13 mph 1017.3mb 79f 81f
4:54 5 11 mph 1017.3mb 79f 81f
4:48 8 14 mph 1017.3mb 79f 81f
4:42 6 13 mph 1017.2mb 79f 81f
4:36 6 15 mph 1017.2mb 79f 81f
4:30 5 10 mph 1017.2mb 79f 81f
4:24 7 16 mph 1017.1mb 79f 82f
4:18 8 15 mph 1017.1mb 79f 82f
4:12 6 13 mph 1017.1mb 79f 83f
4:06 7 14 mph 1017.2mb 79f 82f
4:00 5 17 mph 1017.2mb 79f 83f
3:54 9 15 mph 1017.2mb 79f 82f
3:48 7 14 mph 1017.3mb 79f 82f
3:42 6 16 mph 1017.3mb 79f 82f
3:36 6 17 mph 1017.3mb 79f 83f
3:30 9 24 mph - - -
3:24 7 16 mph 1017.3mb 79f 83f
3:18 8 15 mph 1017.4mb 79f 83f
3:12 8 18 mph 1017.5mb 79f 82f
3:06 9 18 mph 1017.6mb 79f 81f
3:00 9 14 mph 1017.7mb 79f 81f
2:54 5 16 mph 1017.8mb 79f 81f
2:48 7 16 mph 1017.9mb 79f 81f
2:42 7 14 mph 1018mb 79f 82f
2:36 6 14 mph 1018.1mb 79f 82f
2:30 6 17 mph 1018.1mb 79f 83f
2:24 7 14 mph 1018.2mb 79f 82f
2:18 8 14 mph 1018.2mb 79f 82f
2:12 8 16 mph 1018.3mb 79f 81f
2:06 9 16 mph 1018.3mb 79f 81f
2:00 9 15 mph 1018.4mb 79f 82f
1:54 10 15 mph 1018.5mb 79f 81f
1:48 10 17 mph 1018.5mb 79f 81f
1:42 10 22 mph 1018.6mb 79f 81f
1:36 10 15 mph 1018.7mb 79f 82f
1:30 9 17 mph 1018.8mb 79f 81f
1:24 8 14 mph 1018.9mb 79f 82f
1:18 9 20 mph 1019mb 79f 82f
1:12 10 16 mph 1019.1mb 79f 82f
1:06 9 16 mph 1019.3mb 79f 82f
1:00 11 17 mph 1019.4mb 79f 82f
12:54 10 17 mph 1019.5mb 79f 82f
12:48 11 16 mph 1019.6mb 79f 82f
12:42 10 16 mph 1019.7mb 79f 81f
12:36 10 15 mph 1019.9mb 79f 82f
12:30 8 18 mph 1020mb 79f 82f
12:24 9 17 mph 1020.2mb 79f 81f
12:18 9 16 mph 1020.3mb 79f 81f
12:12 9 22 mph 1020.4mb 79f 80f
12:06 10 20 mph 1020.4mb 78f 81f
12:00 13 20 mph 1020.4mb 78f 81f
11:54 14 20 mph 1020.4mb 78f 81f
11:48 13 21 mph - - -
11:42 13 20 mph 1020.5mb 78f 80f
11:36 13 18 mph 1020.6mb 78f 80f
11:30 10 15 mph 1020.7mb 78f 81f
11:24 9 16 mph 1020.8mb 78f 81f
11:18 9 16 mph 1020.9mb 78f 81f
11:12 11 18 mph 1020.9mb 78f 81f
11:06 11 18 mph 1021mb 78f 80f
11:00 11 20 mph 1021.1mb 78f 80f
10:54 10 18 mph 1021.2mb 78f 81f
10:48 7 16 mph 1021.2mb 78f 81f
10:42 7 14 mph 1021.2mb 78f 82f
10:36 8 13 mph 1021.3mb 78f 82f
10:30 6 13 mph 1021.3mb 78f -
10:24 7 10 mph 1021.3mb 78f 82f
10:18 5 11 mph 1021.3mb 78f 82f
10:12 7 14 mph 1021.3mb 78f 82f
10:06 5 13 mph 1021.2mb 78f 83f
10:00 5 14 mph 1021.1mb 78f 82f
9:54 6 15 mph 1021.1mb 78f 82f
9:48 6 11 mph 1021.1mb - -
9:42 6 14 mph 1021.1mb 78f 82f
9:36 7 11 mph 1021mb 78f 82f
9:30 7 10 mph 1020.9mb 78f 81f
9:24 7 10 mph 1020.8mb 78f 81f
9:18 7 13 mph 1020.6mb 78f 80f
9:12 5 10 mph 1020.6mb 78f 80f
9:06 5 9 mph 1020.6mb 78f 80f
9:00 5 13 mph 1020.5mb 78f 80f
8:54 7 13 mph 1020.5mb 78f 79f
8:48 6 9 mph 1020.4mb 78f 79f
8:42 3 10 mph 1020.4mb 78f 79f
8:36 5 9 mph 1020.4mb 78f 78f
8:30 3 6 mph 1020.3mb 78f 78f
8:24 3 9 mph 1020.3mb 78f 77f
8:18 3 7 mph 1020.2mb 78f 77f
8:12 5 8 mph 1020.2mb 78f 76f
8:06 5 8 mph 1020.1mb 78f 76f
8:00 5 8 mph 1020.1mb 78f 75f
7:54 5 8 mph 1020mb 78f 75f
7:48 5 7 mph 1019.9mb 78f 74f
7:42 6 7 mph 1019.9mb 78f 74f
7:36 5 7 mph 1019.8mb 78f 73f
7:30 6 8 mph 1019.7mb 78f 73f
7:24 5 7 mph 1019.7mb 78f 72f
7:18 3 7 mph 1019.7mb 78f 72f
7:12 2 6 mph 1019.6mb 78f 72f
7:06 3 6 mph 1019.6mb 78f 71f
7:00 3 8 mph 1019.5mb 78f 71f
6:54 5 7 mph 1019.5mb 78f 70f
6:48 5 7 mph 1019.5mb - -
6:42 3 7 mph 1019.5mb 78f 72f
6:36 3 7 mph 1019.5mb 78f 71f
6:30 2 6 mph 1019.4mb 78f 71f
6:24 5 6 mph 1019.4mb 78f 71f
6:18 3 6 mph 1019.3mb 78f 70f
6:12 2 3 mph 1019.3mb 78f 70f
6:06 1 2 mph 1019.3mb 78f 70f
6:00  -  7 mph 1019.2mb 78f 70f
5:54 3 5 mph 1019.1mb 78f 70f
5:48 2 3 mph 1019.1mb 78f 70f
5:42 2 3 mph 1019.1mb 78f 70f
5:36 1 3 mph 1019mb 78f 70f
5:30 2 5 mph 1018.9mb 78f 70f
5:24 2 5 mph 1018.9mb 78f 70f
5:18 2 5 mph - - -
5:12 2 5 mph 1018.9mb 78f 69f
5:06 3 6 mph 1018.9mb 78f 69f
5:00 5 5 mph 1018.9mb 78f 70f
4:54 3 6 mph 1018.9mb 78f 70f
4:48  -  5 mph 1018.9mb 79f 70f
4:42 3 6 mph 1018.9mb 79f 71f
4:36 2 5 mph 1018.9mb 79f 71f
4:30 3 5 mph 1018.8mb 78f 71f
4:24 2 2 mph 1018.7mb 78f 71f
4:18 1 3 mph 1018.8mb 78f 71f
4:12 2 3 mph 1018.8mb 78f 71f
4:06 2 3 mph 1018.9mb 78f 71f
4:00 2 3 mph 1018.9mb 78f 72f
3:54 2 2 mph 1018.9mb 79f 72f
3:48  -  1 mph 1018.9mb 79f 72f
3:42 1 2 mph 1018.9mb 79f 72f
3:36  -  1 mph 1019mb 79f 72f
3:30  -  1 mph 1019mb 79f 72f
3:24  -  2 mph 1019mb 79f 72f
3:18 2 3 mph 1019.1mb 79f 72f
3:12  -  2 mph 1019.1mb 79f 72f
3:06  -  3 mph 1019.1mb 79f 72f
3:00 3 5 mph 1019.1mb 79f 72f
2:54 2 5 mph 1019.3mb 79f 71f
2:48 2 3 mph 1019.4mb 79f -
2:42 1 5 mph 1019.4mb 79f 71f
2:36 2 5 mph 1019.5mb 79f 71f
2:30 2 3 mph 1019.6mb 79f 71f
2:24 3 5 mph 1019.6mb 79f 71f
2:18 2 6 mph - - -
2:12 3 6 mph 1019.8mb 79f 71f
2:06 2 3 mph 1019.9mb 79f 71f
2:00 3 6 mph 1019.9mb 79f 71f
1:54 2 3 mph 1020mb 79f 71f
1:48  -  2 mph 1020.1mb 79f 72f
1:42  -  2 mph 1020.1mb 79f 73f
1:36  -  3 mph 1020.2mb 79f 73f
1:30  -  2 mph 1020.3mb 79f 73f
1:24  -  2 mph 1020.3mb 79f 74f
1:18  -  1 mph 1020.4mb 79f 74f
1:12  -  2 mph 1020.5mb 79f 74f
1:06  -  6 mph 1020.5mb 79f 74f
1:00 1 3 mph 1020.6mb 79f 74f
12:54  -  3 mph 1020.6mb 79f 74f
12:48 1 5 mph 1020.7mb 79f 74f
12:42  -  5 mph 1020.8mb 79f 74f
12:36 1 2 mph 1020.8mb 79f 74f
12:30  -  1 mph 1020.8mb 79f 74f
12:24  -  2 mph 1020.8mb 79f 74f
12:18  -  2 mph 1020.9mb 79f 74f
12:12  -  2 mph 1020.9mb 79f 74f
12:06  -  3 mph 1020.9mb 79f 74f
12:00 2 5 mph 1020.9mb - -
lun 02/18 11:54 1 5 mph 1020.9mb 79f 74f
11:48  -  2 mph 1021mb 79f 75f
11:42 1 5 mph 1021mb 79f 75f
11:36  -  5 mph 1021mb 79f 75f
11:30 2 5 mph 1021mb 79f 75f
11:24 2 6 mph 1021mb 79f 75f
11:18 1 5 mph 1021.1mb 79f 75f
11:12 1 5 mph 1021.1mb 79f 76f
11:06 1 5 mph 1021.1mb 79f 76f
11:00 2 6 mph 1021.1mb 79f 76f
10:54 3 7 mph 1021.1mb 79f 76f
10:48 2 7 mph 1021.1mb 79f 76f
10:42 2 6 mph 1021mb 79f 77f
10:36 2 7 mph 1021mb 79f 77f
10:30 3 6 mph 1021mb 79f 77f
10:24 1 8 mph 1021mb 79f 77f
10:18 3 7 mph 1021mb 79f 77f
10:12 6 10 mph 1020.9mb 79f 78f
10:06 5 11 mph 1020.9mb 79f 78f
10:00 5 9 mph 1020.8mb 79f -
9:54 5 9 mph 1020.7mb 79f 78f
9:48 5 9 mph 1020.6mb 79f 78f
9:42 5 8 mph 1020.6mb 79f 78f
9:36 2 8 mph 1020.5mb 79f 78f
9:30 5 11 mph 1020.5mb 79f 78f
9:24 6 10 mph 1020.4mb 79f 78f
9:18 5 9 mph 1020.4mb 79f 78f
9:12 5 8 mph 1020.3mb 79f 78f
9:06 3 8 mph 1020.3mb 79f 78f
9:00 3 9 mph 1020.2mb 80f 78f
8:54 3 7 mph 1020.2mb 80f 78f
8:48 3 9 mph 1020.1mb 80f 78f
8:42 2 10 mph 1020.1mb 80f 79f
8:36 5 11 mph 1020.1mb 80f 79f
8:30 3 10 mph 1020mb 80f 79f
8:24 5 10 mph 1020mb 80f 79f
8:18 3 9 mph 1019.9mb - -
8:12 5 9 mph 1019.9mb 80f 79f
8:06 6 13 mph 1019.8mb 80f 79f
8:00 6 15 mph 1019.7mb 80f 79f
7:54 6 16 mph 1019.7mb 80f 80f
7:48 6 13 mph 1019.6mb 80f 79f
7:42 7 13 mph 1019.6mb 80f 80f
7:36 6 13 mph 1019.5mb 80f 79f
7:30 6 11 mph 1019.5mb 80f 79f
7:24 7 13 mph 1019.4mb 80f 79f
7:18 8 13 mph 1019.3mb 80f -
7:12 7 14 mph 1019.3mb 80f 79f
7:06 9 14 mph 1019.2mb 80f 79f
7:00 7 15 mph 1019.1mb 80f 79f
6:54 8 18 mph 1019.1mb 80f 79f
6:48 7 14 mph 1019mb 80f 79f
6:42 7 16 mph 1019mb 80f 79f
6:36 7 15 mph 1018.8mb 80f 79f
6:30 7 17 mph 1018.8mb 80f 79f
6:24 8 15 mph 1018.7mb 80f 79f
6:18 8 15 mph 1018.7mb 80f 79f
6:12 9 17 mph 1018.7mb 80f 79f
6:06 8 14 mph 1018.6mb 80f 79f
6:00 8 16 mph 1018.5mb 80f 79f
5:54 7 17 mph 1018.5mb 80f 80f
5:48 8 17 mph 1018.5mb 80f 79f
5:42 8 15 mph 1018.5mb 80f 79f
5:36 9 18 mph 1018.4mb 80f 79f
5:30 6 20 mph 1018.4mb 80f 80f
5:24 7 21 mph 1018.3mb 80f 80f
5:18 9 16 mph 1018.2mb 80f 80f
5:12 10 17 mph 1018.2mb 80f 80f
5:06 5 16 mph 1018.1mb 80f 80f
5:00 6 16 mph - - -
4:54 9 16 mph 1018.1mb 80f 80f
4:48 6 11 mph 1018mb 80f 80f
4:42 6 14 mph 1018mb 80f 80f
4:36 6 11 mph 1017.9mb 80f 80f
4:30 6 14 mph - - -
4:24 6 17 mph 1018mb 80f 81f
4:18 6 15 mph 1018.1mb 80f 80f
4:12 10 16 mph 1018mb 80f 80f
4:06 11 17 mph 1018.1mb 80f 80f
4:00 9 18 mph 1018.1mb 80f 81f
3:54 5 15 mph 1018mb 80f 82f
3:48 7 14 mph 1018mb 80f 82f
3:42 7 15 mph 1018mb 80f 82f
3:36 10 15 mph 1018mb 80f 83f
3:30 7 14 mph 1018mb 80f 83f
3:24 6 13 mph 1018mb 80f 83f
3:18 6 13 mph 1018.1mb 80f 83f
3:12 3 11 mph 1018.2mb 80f 84f
3:06 8 16 mph 1018.2mb 80f 83f
3:00 6 11 mph 1018.2mb 80f 83f
2:54 6 15 mph 1018.3mb 80f 83f
2:48 10 15 mph 1018.3mb 80f 82f
2:42 7 15 mph 1018.4mb 80f 82f
2:36 9 16 mph 1018.5mb 80f 82f
2:30 5 11 mph 1018.5mb 80f 82f
2:24 10 17 mph 1018.6mb 80f 82f
2:18 9 20 mph 1018.6mb 80f 82f
2:12 9 17 mph 1018.7mb 80f 82f
2:06 9 16 mph 1018.8mb 80f 82f
2:00 9 16 mph 1018.8mb 80f 82f
1:54 10 17 mph 1019mb 80f 82f
1:48 9 15 mph 1019.1mb 80f 82f
1:42 9 21 mph 1019.1mb 80f 82f
1:36 13 17 mph 1019.2mb 80f 82f
1:30 14 18 mph 1019.2mb 80f 82f
1:24 11 17 mph 1019.3mb 80f 82f
1:18 10 17 mph 1019.4mb 80f 82f
1:12 9 16 mph 1019.5mb 80f 82f
1:06 10 15 mph 1019.6mb 80f 82f
1:00 10 18 mph 1019.7mb 79f 82f
12:54 11 16 mph 1019.7mb 79f 82f
12:48 10 17 mph 1019.8mb 79f -
12:42 10 17 mph 1019.9mb 79f 82f
12:36 10 17 mph 1020mb 79f 82f
12:30 9 14 mph 1020mb 79f 82f
12:24 9 15 mph 1020.1mb 79f 83f
12:18 11 15 mph 1020.2mb 79f 82f
12:12 9 16 mph 1020.2mb 79f 82f
12:06 10 16 mph 1020.3mb 79f 82f
12:00 10 16 mph 1020.4mb 79f 82f
11:54 13 16 mph 1020.4mb 79f 82f
11:48 8 15 mph 1020.3mb 79f 84f
11:42 7 16 mph 1020.4mb 79f 86f
11:36 6 10 mph 1020.4mb 79f 85f
11:30 7 14 mph 1020.5mb 79f 83f
11:24 8 13 mph 1020.5mb 79f 83f
11:18 9 15 mph 1020.6mb 79f 83f
11:12 8 13 mph 1020.7mb 79f 84f
11:06 6 10 mph 1020.7mb 79f 83f
11:00 5 10 mph 1020.8mb 79f 83f
10:54 6 10 mph 1020.8mb 79f 83f
10:48 3 8 mph 1020.9mb 79f 83f
10:42 6 14 mph 1020.9mb 79f 83f
10:36 3 14 mph 1021mb 79f 83f
10:30 5 13 mph 1021mb 79f 82f
10:24 5 13 mph 1021mb 79f 82f
10:18 6 13 mph 1021mb 79f 82f
10:12 6 11 mph 1020.9mb 79f 82f
10:06 7 16 mph 1020.9mb 79f 82f
10:00 5 15 mph 1020.8mb 79f 82f
9:54 6 15 mph 1020.7mb 79f 82f
9:48 9 15 mph - - -
9:42 7 16 mph 1020.6mb 79f 82f
9:36 5 14 mph 1020.5mb 79f 81f
9:30 7 14 mph 1020.4mb 79f 81f
9:24 6 13 mph 1020.3mb 79f 81f
9:18 6 10 mph - - -
9:12 6 13 mph 1020.1mb 78f 80f
9:06 5 10 mph 1020mb 78f 81f
9:00 5 8 mph 1020mb 78f 80f
8:54 5 10 mph 1020mb 78f 80f
8:48 5 8 mph - - -
8:42 2 6 mph 1019.7mb 78f 79f
8:36 3 7 mph 1019.7mb 78f 78f
8:30 2 8 mph 1019.6mb 78f 77f
8:24 2 8 mph 1019.6mb 78f 77f
8:18 3 6 mph 1019.5mb - -
8:12 3 6 mph 1019.4mb 78f 76f
8:06 3 6 mph 1019.3mb 78f 76f
8:00 2 6 mph 1019.2mb 78f 75f
7:54 2 5 mph 1019.2mb 78f 75f
7:48 2 5 mph 1019mb 78f 75f
7:42 1 6 mph 1018.9mb 78f 75f
7:36 1 5 mph 1018.8mb 78f 75f
7:30  -  2 mph 1018.7mb 78f 74f
7:24  -  1 mph 1018.6mb 78f 73f
7:18  -  1 mph 1018.6mb 78f 73f
7:12  -  2 mph 1018.5mb 78f 73f
7:06  -  3 mph 1018.5mb 78f 73f
7:00 1 3 mph 1018.4mb 78f 73f
6:54  -  1 mph 1018.4mb 78f 73f
6:48  -  2 mph 1018.3mb 79f 73f
6:42  -  2 mph 1018.2mb 79f 73f
6:36  -  2 mph 1018.2mb 79f 73f
6:30  -  5 mph 1018.1mb 79f 73f
6:24 2 5 mph 1018.2mb 79f 73f
6:18 1 5 mph - - -
6:12  -  1 mph 1018mb 79f 72f
6:06 1 5 mph 1018mb 79f 72f
6:00 2 5 mph 1017.9mb 79f 73f
5:54  -  3 mph 1017.8mb 79f 73f
5:48 1 2 mph 1017.8mb - -
5:42 2 2 mph 1017.8mb 79f 72f
5:36  -  3 mph 1017.8mb 79f 72f
5:30  -  1 mph 1017.8mb 79f 71f
5:24 1 2 mph 1017.8mb 79f 71f
5:18 1 2 mph 1017.8mb 79f 71f
5:12  -  1 mph 1017.8mb 79f 71f
5:06  -  1 mph 1017.8mb 79f 72f
5:00  -  0 mph 1017.8mb 79f 72f
4:54  -  1 mph 1017.8mb 79f 71f
4:48  -  1 mph 1017.8mb 79f 72f
4:42  -  0 mph 1017.8mb 79f 72f
4:36  -  1 mph 1017.8mb 79f 72f
4:30  -  1 mph 1017.8mb 79f 72f
4:24  -  1 mph 1017.8mb 79f 72f
4:18 1 3 mph 1017.8mb 79f 72f
4:12 1 2 mph 1017.8mb 79f 72f
4:06 1 2 mph 1017.8mb 79f 72f
4:00 1 5 mph 1017.8mb 79f 72f
3:54 2 5 mph 1017.8mb 79f 72f
3:48 2 5 mph 1017.9mb 79f 72f
3:42 3 6 mph 1017.9mb 79f 72f
3:36 5 6 mph 1018mb 79f 72f
3:30 5 7 mph 1018.1mb 79f 72f
3:24 5 7 mph 1018.1mb 79f 72f
3:18 5 7 mph 1018.1mb 79f 72f
3:12 3 5 mph 1018.1mb 79f 72f
3:06 3 7 mph 1018.2mb 79f 72f
3:00 5 7 mph 1018.2mb 79f 72f
2:54 5 7 mph 1018.3mb 79f 72f
2:48 5 7 mph 1018.3mb 79f 73f
2:42 5 6 mph 1018.3mb 79f 73f
2:36 3 6 mph 1018.4mb 79f 73f
2:30 5 6 mph 1018.4mb 79f 73f
2:24 3 6 mph 1018.4mb 79f 73f
2:18 2 3 mph 1018.5mb 79f 73f
2:12 2 2 mph 1018.5mb 79f 74f
2:06 1 3 mph 1018.6mb 79f 74f
2:00 1 3 mph 1018.7mb 79f 74f
1:54  -  3 mph 1018.7mb 79f 74f
1:48  -  1 mph 1018.8mb 79f 74f
1:42 1 3 mph 1018.8mb 79f 74f
1:36  -  3 mph 1018.8mb 79f 74f
1:30  -  3 mph 1018.8mb 79f 74f
1:24 1 3 mph 1018.9mb 79f 74f
1:18 1 5 mph 1018.9mb 79f 74f
1:12  -  3 mph 1019mb 79f 74f
1:06  -  5 mph 1019.1mb 79f 74f
1:00 1 3 mph 1019.1mb 79f 75f
12:54 1 5 mph 1019.1mb 79f 75f
12:48  -  3 mph 1019.2mb 79f 74f
12:42  -  5 mph 1019.3mb 79f 74f
12:36 2 3 mph 1019.3mb 79f 74f
12:30 1 5 mph 1019.3mb 79f 74f
12:24 2 6 mph 1019.3mb 79f 74f
12:18 1 5 mph 1019.3mb 79f 74f
12:12 1 5 mph 1019.3mb 79f 74f
12:06 1 3 mph 1019.4mb 79f 74f
12:00  -  3 mph 1019.4mb 79f 74f
dom 02/17 11:54 1 5 mph 1019.4mb 79f 74f
11:48 1 2 mph 1019.5mb 79f 74f
11:42 2 3 mph 1019.5mb 79f 74f
11:36 2 3 mph 1019.5mb 79f 74f
11:30 1 5 mph 1019.5mb 79f 74f
11:24  -  5 mph 1019.5mb 79f 74f
11:18 1 2 mph 1019.5mb 79f 74f
11:12 1 3 mph 1019.5mb 79f 74f
11:06  -  5 mph 1019.5mb 79f 74f
11:00 2 3 mph 1019.5mb 79f 74f
10:54 1 3 mph 1019.5mb 79f 74f
10:48 1 3 mph 1019.4mb 79f 74f
10:42  -  2 mph 1019.4mb 79f 74f
10:36 1 3 mph 1019.4mb 79f 74f
10:30  -  5 mph 1019.4mb 79f 74f
10:24 2 3 mph 1019.4mb 79f 74f
10:18 2 5 mph 1019.4mb 79f 74f
10:12 1 5 mph 1019.4mb 80f 74f
10:06 2 6 mph 1019.4mb 80f 74f
10:00 1 5 mph 1019.4mb 80f 74f
9:54 2 6 mph 1019.4mb 80f 74f
9:48 1 5 mph 1019.4mb 80f 74f
9:42  -  3 mph 1019.3mb 80f 74f
9:36 1 2 mph 1019.3mb 80f 74f
9:30  -  3 mph 1019.3mb 80f 73f
9:24 3 5 mph 1019.3mb 80f 73f
9:18 3 5 mph 1019.2mb 80f 73f
9:12 3 6 mph 1019.3mb 80f 73f
9:06 5 6 mph 1019.2mb 80f 73f
9:00 2 6 mph 1019.2mb 80f 73f
8:42 1 6 mph 1019.1mb 80f 73f
8:36 3 6 mph 1019.1mb 80f 73f
8:30 5 6 mph 1019.1mb 80f 73f
8:24 5 6 mph 1019mb 80f 73f
8:18 2 6 mph - - -
8:12 6 8 mph 1018.9mb 80f 72f
8:06 2 5 mph 1018.8mb 80f 73f
8:00 1 3 mph 1018.7mb 80f 73f
7:54 2 5 mph 1018.6mb 80f 73f
7:48 3 6 mph 1018.5mb 80f 73f
7:42 2 5 mph 1018.5mb 80f 73f
7:36 3 6 mph 1018.5mb 80f 73f
7:30 2 3 mph 1018.4mb 80f 73f
7:24 3 5 mph 1018.4mb 80f 73f
7:18 3 6 mph 1018.3mb 80f 73f
7:12 6 8 mph 1018.3mb 80f 73f
7:06 6 7 mph 1018.3mb 80f 73f
7:00 3 7 mph 1018.2mb 80f 73f
6:54 6 7 mph 1018.3mb 80f 73f
6:48 6 8 mph 1018.3mb 80f 73f
6:42 6 8 mph 1018.3mb 80f 73f
6:36 6 7 mph 1018.3mb 80f 73f
6:30 3 6 mph 1018.3mb 80f 73f
6:24 3 5 mph 1018.2mb 80f 73f
6:18 3 6 mph 1018.2mb 80f 73f
6:12 7 10 mph 1018.2mb 80f 73f
6:06 7 10 mph 1018.2mb 80f 73f
6:00 8 11 mph 1018.1mb 80f 74f
5:54 8 9 mph 1017.9mb 80f 74f
5:48 6 7 mph 1017.9mb 80f 74f
5:42 7 9 mph 1017.8mb 80f 74f
5:36 8 13 mph 1017.7mb 80f 74f
5:30 9 15 mph 1017.7mb 80f 74f
5:24 9 11 mph 1017.7mb 80f 74f
5:18 8 13 mph 1017.6mb 80f 75f
5:12 10 14 mph 1017.6mb 80f 74f
5:06 11 14 mph 1017.5mb 80f 74f
5:00 7 10 mph 1017.6mb 80f 74f
4:54 8 15 mph 1017.5mb 80f 75f
4:48 11 17 mph 1017.4mb 80f 75f
4:42 11 15 mph 1017.4mb 80f 76f
4:36 11 14 mph 1017.4mb 80f 76f
4:30 7 11 mph 1017.4mb 80f 79f
4:24 6 9 mph 1017.2mb 80f 80f
4:18 3 9 mph 1017.1mb 80f 80f
4:12 3 8 mph 1017mb 80f 81f
4:06 5 10 mph 1016.9mb 80f 81f
4:00 6 9 mph 1016.8mb 80f 81f
3:54 6 13 mph 1016.8mb 80f 81f
3:48 8 14 mph 1016.7mb 80f 81f
3:42 9 15 mph 1016.7mb 80f 82f
3:36 6 14 mph 1016.8mb 80f 83f
3:30 9 15 mph 1016.8mb 80f 83f
3:24 9 14 mph 1016.8mb 80f 83f
3:18 9 14 mph 1016.8mb 80f 83f
3:12 9 14 mph 1016.8mb 80f 83f
3:06 9 14 mph 1016.8mb 80f 82f
3:00 7 15 mph 1016.9mb 80f 83f
2:54 10 16 mph 1017mb 80f 82f
2:48 10 15 mph 1017mb 80f 82f
2:42 10 17 mph 1017.1mb 80f 82f
2:36 10 17 mph 1017.1mb 80f 82f
2:30 11 16 mph 1017.3mb 80f 81f
2:24 11 16 mph 1017.4mb 80f 82f
2:18 9 14 mph 1017.5mb 80f 82f
2:12 11 16 mph 1017.7mb 80f 82f
2:06 13 20 mph 1017.8mb 80f 82f
2:00 10 16 mph 1017.9mb 80f 82f
1:54 9 16 mph 1018mb 80f 82f
1:48 13 15 mph 1018mb 80f 82f
1:42 10 17 mph 1018.1mb 80f 82f
1:36 11 15 mph 1018.2mb 80f 82f
1:30 10 15 mph 1018.3mb 80f 82f
1:24 11 14 mph 1018.3mb 80f 82f
1:18 9 16 mph - - -
1:12 10 16 mph 1018.4mb 80f 82f
1:06 13 16 mph 1018.5mb 80f 82f
1:00 10 14 mph 1018.6mb 80f 82f
12:54 9 16 mph 1018.6mb 80f 82f
12:48 11 17 mph 1018.7mb 80f 82f
12:42 9 14 mph 1018.8mb 80f 82f
12:36 9 15 mph 1018.9mb 79f 82f
12:30 11 16 mph 1019mb 79f 82f
12:24 10 16 mph 1019mb 79f 81f
12:18 10 15 mph 1019.1mb 79f -
12:12 10 17 mph 1019.2mb 79f 81f
12:06 10 16 mph 1019.3mb 79f 81f
12:00 11 16 mph 1019.4mb 79f 82f
11:54 10 17 mph 1019.4mb 79f 82f
11:48 9 14 mph 1019.4mb 79f 82f
11:42 7 15 mph 1019.5mb 79f 83f
11:36 7 15 mph 1019.5mb 79f 82f
11:30 10 15 mph 1019.6mb 79f 82f
11:24 9 13 mph 1019.6mb 79f 82f
11:18 8 14 mph 1019.6mb 79f 82f
11:12 10 14 mph 1019.6mb 79f 82f
11:06 9 13 mph 1019.7mb 79f 82f
11:00 8 13 mph 1019.7mb 79f 83f
10:54 5 9 mph 1019.8mb 79f 84f
10:48 3 11 mph 1019.9mb 79f 84f
10:42 7 11 mph 1019.9mb 79f 83f
10:36 7 10 mph 1019.9mb 79f 83f
10:30 7 14 mph 1019.9mb 79f 83f
10:24 7 11 mph 1019.9mb 79f 83f
10:18 8 14 mph 1019.9mb 79f 83f
10:12 6 11 mph 1019.8mb 79f 83f
10:06 3 9 mph 1019.8mb 79f 83f
10:00 5 9 mph 1019.7mb 79f 83f
9:54 5 11 mph 1019.7mb 79f 83f
9:48 8 11 mph - - -
9:42 5 14 mph 1019.6mb 79f 83f
9:36 5 13 mph 1019.6mb 79f 82f
9:30 3 14 mph 1019.5mb 79f 83f
9:24 6 10 mph 1019.4mb 79f 82f
9:18 3 6 mph 1019.3mb 79f 82f
9:12 6 11 mph 1019.3mb 79f 81f
9:06 6 9 mph 1019.2mb 79f 81f
9:00 5 10 mph 1019.1mb 79f 81f
8:54 6 10 mph 1019mb 79f 81f
8:48 6 10 mph 1019mb - -
8:42 7 9 mph 1018.9mb 79f 80f
8:36 5 7 mph 1018.9mb 79f 81f
8:30 2 9 mph 1018.7mb 79f 80f
8:24 6 11 mph 1018.7mb 79f 80f
8:18 5 10 mph 1018.6mb 79f 80f
8:12 5 9 mph 1018.5mb 79f 79f
8:06 5 9 mph 1018.4mb 79f 79f
8:00 3 10 mph 1018.4mb 79f 79f
7:54 5 8 mph 1018.4mb 79f 78f
7:48 3 7 mph - - -
7:42 6 10 mph 1018.3mb 79f 78f
7:36 5 8 mph 1018.2mb 79f 77f
7:30 3 7 mph 1018.1mb 79f 77f
7:24 3 9 mph 1018mb 79f 77f
7:18 2 8 mph 1017.9mb 79f -
7:12 1 8 mph 1017.8mb 79f 76f
7:06 2 9 mph 1017.7mb 79f 76f
7:00 3 9 mph 1017.6mb 79f 76f
6:54 3 8 mph 1017.5mb 79f 76f
6:48 2 9 mph 1017.5mb - -
6:42 5 10 mph 1017.4mb 79f 76f
6:36 2 7 mph 1017.3mb 79f 76f
6:30 2 5 mph 1017.2mb 79f 76f
6:24 2 6 mph 1017.1mb 79f 76f
6:18 1 7 mph 1017mb - -
6:12 3 6 mph 1016.9mb 79f 76f
6:06 2 7 mph 1016.8mb 79f 76f
6:00 2 5 mph 1016.7mb 79f 76f
5:54 2 6 mph 1016.7mb 79f 76f
5:48 2 7 mph 1016.6mb 79f 76f
5:42 2 7 mph 1016.4mb 79f 76f
5:36 2 6 mph 1016.4mb 79f 76f
5:30 2 6 mph 1016.3mb 79f 76f
5:24 2 6 mph 1016.3mb 79f 76f
5:18 2 7 mph 1016.2mb 79f 76f
5:12 1 6 mph 1016.1mb 79f 76f
5:06 2 8 mph 1016mb 79f 76f
5:00 2 7 mph 1016mb 79f 76f
4:54 2 6 mph 1016mb 79f 76f
4:48 1 7 mph 1016mb 79f 76f
4:42 2 7 mph 1016mb 79f 76f
4:36 5 8 mph 1016mb 79f 76f
4:30 3 7 mph 1016mb 79f 76f
4:24 2 7 mph 1016mb 79f 76f
4:18 2 7 mph 1016mb 79f 76f